Theta_e
320 320 319 318 319 319 318 317 317 317 317 317 319 321 321 320 320 314 304 310 315 330 329 308 306 305 305 303 304 301 292 288 291 293 297 300 301 306 308 311 317 331 330 334 339
319 319 319 318 319 318 316 316 316 317 317 317 318 320 320 320 312 307 318 332 334 338 309 304 302 302 300 299 301 297 290 293 297 297 299 300 300 301 304 305 321 324 325 331 332
318 318 319 318 318 319 318 317 317 317 317 317 318 319 319 318 306 311 335 338 338 330 308 306 302 301 295 295 297 294 293 298 301 302 301 301 302 303 301 300 306 321 322 326 328
317 318 318 318 318 318 317 317 317 317 317 318 317 318 319 312 292 310 337 340 338 314 307 303 300 295 293 296 297 297 299 299 302 303 300 300 302 303 302 302 306 325 325 326 327
317 317 317 317 317 318 318 317 318 317 317 316 316 318 313 303 304 317 335 333 314 309 306 301 297 297 295 295 297 295 299 300 301 300 298 301 302 302 301 307 307 329 327 325 325
317 316 316 316 317 317 317 317 317 317 317 317 316 317 307 294 309 322 317 312 308 303 303 300 301 303 298 296 294 297 297 298 299 299 297 298 300 300 303 307 307 320 328 327 327
316 315 316 316 317 317 317 317 316 317 321 320 317 316 307 300 312 317 311 306 307 305 303 304 304 301 298 296 297 298 296 297 298 298 297 299 297 298 304 304 305 305 304 317 323
315 315 315 315 316 317 317 316 316 319 319 319 319 312 300 314 312 311 310 311 312 309 307 308 305 302 298 298 299 296 292 288 296 299 301 298 292 300 303 302 303 304 305 318 328
315 314 314 315 315 316 315 315 316 321 319 319 312 309 306 321 311 313 310 308 311 311 308 312 304 300 301 293 291 291 287 289 293 298 299 297 295 300 303 302 302 303 304 322 328
314 313 313 314 315 315 314 314 319 317 318 317 316 306 308 309 313 314 310 311 309 308 305 303 298 294 292 290 285 288 288 289 290 296 298 296 295 302 302 301 302 302 311 318 324
314 313 313 313 314 313 309 305 302 302 311 307 309 311 313 311 314 310 311 310 309 303 295 298 293 290 293 294 295 293 292 291 295 299 296 298 296 298 301 299 300 303 316 319 320
313 313 313 313 313 312 307 305 305 305 299 308 310 311 314 311 306 308 310 303 302 296 298 295 291 298 299 298 296 294 292 291 296 299 297 296 297 299 299 299 302 307 316 318 319
312 312 313 313 311 310 307 309 310 308 297 305 310 307 306 307 305 306 307 303 299 295 296 292 297 302 300 298 296 296 293 294 294 299 298 295 293 296 300 301 301 305 315 318 323
312 312 312 311 307 305 308 309 307 308 294 302 302 304 306 305 303 311 310 306 300 296 297 295 300 301 299 298 298 291 299 299 298 293 288 294 287 290 297 297 302 306 314 315 323
311 311 311 310 301 303 311 311 308 307 287 304 302 307 304 301 304 306 310 305 299 299 298 295 297 296 296 297 300 296 301 298 298 293 289 291 286 290 294 296 302 307 313 322 324
311 311 311 307 303 308 311 308 306 296 290 300 303 299 299 301 303 306 306 306 304 298 298 297 302 300 299 303 303 303 298 297 294 289 285 289 288 288 296 300 303 306 319 320 321
310 310 308 309 300 307 306 304 294 290 302 297 298 300 297 297 299 302 300 296 292 289 290 296 297 302 303 297 301 297 292 285 284 284 284 291 289 294 301 303 303 306 308 314 319
308 308 307 310 307 309 303 299 289 298 295 300 298 298 295 298 298 300 297 293 298 296 291 289 288 296 301 298 294 295 291 286 279 280 286 293 290 296 304 306 306 306 307 309 312
307 304 306 311 311 307 300 291 292 294 298 297 297 295 295 298 297 296 294 295 297 296 290 288 290 300 301 302 300 294 290 297 291 292 286 288 298 303 306 305 305 305 306 306 308
299 302 307 313 311 305 298 295 295 300 300 298 292 296 291 293 294 293 293 298 297 298 297 293 286 296 299 302 300 297 298 288 287 280 282 287 290 293 300 301 304 303 304 306 307
302 302 309 306 309 301 293 296 299 302 302 297 295 293 294 293 294 292 294 297 299 297 297 293 289 290 295 293 293 294 293 295 291 289 284 283 287 299 301 303 303 304 305 306 308
297 297 308 307 296 296 293 298 300 301 303 300 298 297 295 295 293 293 294 297 300 298 293 293 288 284 288 299 302 297 294 293 288 286 289 290 289 305 303 304 305 304 306 307 309
294 297 309 306 291 292 297 300 302 301 300 298 296 298 297 293 288 295 296 302 300 298 293 291 284 279 283 288 294 294 296 297 293 291 287 285 289 303 305 303 305 306 307 308 309
298 296 299 299 297 294 294 295 297 303 300 300 297 298 294 292 293 293 294 301 302 300 307 297 286 284 280 284 289 288 293 296 292 287 288 288 290 299 301 302 303 304 307 308 308
299 294 295 290 293 294 293 297 296 296 299 298 295 296 294 288 291 291 295 296 299 303 297 290 284 287 290 294 293 292 292 293 291 291 288 290 293 297 301 301 303 305 306 306 307
295 294 296 294 296 295 294 294 297 298 296 295 293 297 294 289 291 289 292 291 291 294 291 291 286 289 288 293 292 290 292 293 293 294 292 291 293 300 301 301 303 305 305 303 301
298 299 296 294 293 292 293 296 298 297 298 299 296 293 292 295 296 295 295 295 294 291 289 287 285 283 280 290 289 284 290 292 291 294 290 286 292 294 295 297 298 298 300 300 300
Wind_Speed
19 19 19 19 17 16 16 16 16 15 14 14 13 12 12 13 14 2 7 12 8 8 3 5 4 3 3 3 3 4 4 4 7 2 7 7 10 9 7 8 3 2 10 8 13
20 20 19 19 18 17 17 17 15 15 14 14 13 12 12 12 3 6 11 10 12 6 3 3 4 3 2 2 3 5 4 8 7 3 7 7 5 4 7 3 4 4 3 4 13
20 20 20 20 19 17 17 16 14 14 13 13 13 12 11 7 3 6 3 10 10 11 4 4 2 1 2 1 3 2 5 7 11 10 6 5 7 2 4 5 3 7 5 5 5
21 21 22 21 20 18 18 17 14 13 13 13 12 10 10 2 0 3 2 4 12 5 1 2 3 2 3 4 4 1 8 7 11 9 6 7 3 5 2 5 6 8 8 6 7
22 23 23 22 21 19 16 15 13 11 10 10 9 7 4 1 9 3 6 8 6 5 5 3 1 3 3 4 5 6 9 7 10 10 7 6 7 6 3 7 3 4 5 9 7
22 23 22 22 20 19 17 13 11 9 8 7 4 2 1 2 5 8 7 7 6 5 5 7 7 6 5 5 3 4 4 7 8 9 5 4 5 3 4 6 9 10 10 9 9
23 23 22 22 20 19 17 14 10 9 6 3 5 3 1 12 2 6 8 5 7 6 4 5 2 3 4 7 2 4 9 10 7 5 5 2 8 5 8 5 7 11 8 11 10
24 24 23 22 20 18 18 15 11 7 4 5 7 2 7 7 3 6 6 6 5 6 5 6 5 5 2 3 9 7 4 6 9 9 8 6 10 10 11 5 9 11 9 9 6
24 24 24 22 21 19 18 18 8 2 5 7 3 1 9 9 1 8 5 4 3 5 4 5 3 2 7 4 6 7 5 6 12 1 6 5 13 11 10 7 8 10 2 11 12
25 25 25 25 22 20 20 6 7 3 3 5 4 3 5 3 3 2 3 2 1 1 5 6 6 4 5 6 5 5 5 6 6 9 4 9 10 18 12 8 10 10 10 9 16
25 25 26 26 23 20 11 3 5 4 2 5 5 4 10 3 3 2 3 2 4 6 2 3 4 5 9 8 9 5 6 12 16 16 4 14 9 14 9 5 5 8 13 11 12
25 25 26 28 26 21 2 2 5 7 7 8 13 10 17 7 2 2 4 4 4 1 1 6 5 12 7 8 7 9 12 13 12 11 4 7 9 7 4 4 7 10 15 16 11
25 25 27 29 31 2 3 5 7 7 2 8 6 4 4 5 4 5 6 3 4 2 5 6 9 5 5 9 11 14 6 9 10 10 3 3 7 6 9 3 3 11 6 8 17
25 25 25 31 4 5 6 7 7 5 5 6 3 3 1 2 3 5 8 6 1 5 4 6 5 4 9 8 6 5 10 12 13 2 7 4 8 3 6 8 7 8 16 11 11
25 25 23 14 4 2 6 9 8 6 3 3 2 4 2 2 5 4 4 3 6 7 4 10 7 8 7 7 10 9 10 9 13 6 1 2 4 10 4 11 16 8 10 12 12
28 24 19 2 1 9 8 9 5 6 1 1 3 2 5 5 6 1 1 4 1 2 2 7 7 2 1 4 6 8 9 7 2 2 6 6 7 5 6 9 14 2 8 10 13
29 28 11 3 5 3 6 5 6 4 6 5 5 5 5 4 5 1 2 5 3 6 4 5 6 4 12 9 9 11 8 6 7 4 8 3 5 5 2 11 16 17 13 10 5
31 24 4 6 5 6 5 6 3 2 4 3 5 6 3 9 4 5 5 5 11 6 3 4 7 8 8 4 4 5 5 5 3 4 11 7 6 8 6 12 19 17 15 18 15
24 4 2 6 5 4 7 5 2 3 3 5 6 4 5 7 5 8 7 4 7 7 4 5 5 12 9 3 3 5 2 2 6 4 5 7 5 6 2 15 18 19 19 19 13
4 5 5 7 7 6 6 3 2 3 2 4 4 4 5 6 6 6 4 4 5 4 2 2 5 4 6 5 4 5 3 2 4 3 6 7 5 6 7 10 16 18 15 15 14
4 5 6 4 6 7 3 4 1 3 4 4 2 3 3 4 3 4 3 2 1 3 7 2 3 7 6 4 6 5 4 5 1 3 4 2 7 2 8 12 17 19 12 12 13
4 3 4 5 5 2 2 7 3 2 6 5 3 5 4 4 3 3 3 2 2 3 3 1 4 1 5 5 6 5 5 4 5 3 4 5 5 9 4 8 14 20 22 14 10
3 4 5 6 4 4 7 5 3 2 2 2 3 5 2 1 3 3 4 5 5 3 5 2 2 4 9 6 3 4 3 3 4 3 5 4 5 7 10 5 8 14 15 14 12
3 5 6 6 1 3 5 4 6 6 2 3 2 3 2 2 3 3 5 7 8 3 6 7 3 7 6 7 5 6 6 10 8 4 4 6 7 5 13 4 7 9 12 13 12
3 2 1 5 5 6 2 3 5 4 2 6 2 6 3 2 3 3 5 5 4 7 5 4 5 3 4 6 6 11 9 9 8 11 5 10 9 10 13 10 11 9 7 9 9
3 4 5 4 4 5 3 4 8 2 3 3 0 2 4 3 2 1 2 1 5 4 3 4 3 2 3 6 6 10 14 15 11 15 8 6 9 7 7 7 8 14 11 7 13
4 4 4 5 5 3 1 7 11 4 2 7 5 2 2 3 3 5 6 6 7 4 1 1 3 2 5 4 7 6 3 7 5 7 4 1 7 3 11 12 12 13 13 10 8
Wind_Direction
351 349 347 343 336 333 332 329 325 322 320 320 321 324 326 325 313 139 244 220 185 229 123 338 339 283 58 270 198 120 73 261 255 86 294 308 346 327 320 126 189 230 155 210 189
348 345 343 341 338 337 333 326 321 319 317 317 318 323 324 331 300 250 249 235 226 166 156 235 291 331 355 264 318 106 127 232 225 196 260 306 296 301 18 5 19 355 60 65 127
346 344 342 341 339 333 330 327 321 314 313 312 313 318 317 323 323 250 199 239 185 167 172 171 74 30 243 26 256 200 202 244 278 255 231 258 297 288 55 343 233 187 196 137 151
345 344 342 340 337 334 334 332 324 314 309 308 309 311 316 257 353 269 26 87 149 164 83 347 65 151 226 227 229 203 257 238 274 273 289 252 227 314 118 238 287 209 175 145 178
342 343 341 338 336 331 329 328 323 315 306 306 306 306 307 24 252 207 124 110 114 141 184 185 108 167 227 229 333 186 270 284 269 288 246 272 254 222 251 281 118 137 178 174 215
340 339 338 337 334 328 325 325 320 310 310 300 287 291 277 288 238 151 154 134 141 167 181 161 202 185 268 239 159 271 251 265 288 286 264 242 258 156 261 275 302 152 206 215 207
339 336 336 335 332 325 321 319 318 315 325 260 187 218 299 238 321 161 175 200 170 175 189 222 176 152 274 315 269 284 356 332 312 294 299 348 324 242 244 265 258 282 200 224 215
338 334 333 332 330 324 317 311 307 306 41 118 154 262 247 254 208 224 200 256 217 199 216 248 191 216 72 277 359 11 43 3 294 306 281 108 272 262 254 212 266 270 265 100 54
336 332 330 331 331 326 317 314 284 238 116 140 125 83 275 307 204 245 189 219 246 230 223 260 71 81 16 55 5 1 261 299 307 315 275 160 272 260 238 190 234 257 79 123 109
336 332 330 330 332 325 319 286 118 124 178 206 247 319 276 297 204 158 207 185 265 199 25 30 46 45 14 67 236 251 294 283 265 304 308 290 258 273 224 179 221 236 122 136 125
336 332 329 328 329 327 345 49 21 1 131 217 232 261 280 280 167 179 181 51 56 47 120 305 73 244 244 216 229 240 253 267 278 280 280 289 285 275 223 158 207 123 135 131 123
335 331 330 327 325 324 183 61 246 208 315 243 247 238 254 274 318 182 105 95 69 303 297 11 263 253 242 259 232 248 256 267 277 273 228 305 303 302 276 183 176 141 140 137 128
334 333 332 325 320 328 277 254 285 88 54 293 234 242 209 141 262 169 125 163 167 193 257 181 248 291 233 267 270 269 249 275 247 292 222 325 320 337 313 201 154 136 118 121 137
333 333 334 329 9 319 304 287 343 89 64 278 197 242 325 124 283 162 180 153 39 215 248 249 270 272 296 291 262 260 257 264 271 288 276 129 275 292 278 311 36 151 154 147 142
330 331 331 326 284 322 255 329 324 59 62 186 139 223 10 60 245 239 183 115 208 242 105 254 285 297 298 275 317 289 279 268 277 251 258 236 98 277 3 360 356 278 145 131 122
328 327 332 129 225 243 321 314 55 48 287 124 78 51 25 346 329 54 20 47 202 196 243 243 280 51 11 324 10 327 349 341 316 128 256 237 137 11 10 330 314 179 93 93 96
327 317 310 248 230 351 338 36 50 101 335 9 25 7 329 288 328 70 77 19 39 360 355 333 3 5 18 3 351 39 41 346 333 341 248 354 83 84 66 49 34 41 29 19 46
325 317 209 227 258 5 37 53 92 29 16 9 345 323 294 16 12 7 28 19 32 57 45 47 336 23 358 15 322 330 120 144 216 341 310 287 181 160 138 85 63 44 41 46 23
322 331 295 261 216 94 65 65 229 50 2 359 339 21 9 358 45 26 13 72 37 23 85 29 301 337 22 351 68 311 333 184 143 161 325 287 106 167 157 73 63 48 36 44 40
349 338 279 281 127 68 68 252 61 68 31 17 54 50 12 351 32 34 358 354 129 55 105 306 299 314 339 4 57 97 333 5 25 170 208 269 237 152 166 109 90 60 42 27 1
19 29 261 28 67 51 132 236 101 113 109 81 66 342 359 15 38 360 316 140 94 7 78 83 106 301 11 344 272 6 65 73 137 176 226 128 292 349 168 154 128 115 75 36 325
1 38 301 38 49 50 31 301 311 101 40 42 86 27 30 46 1 339 336 288 178 154 118 232 126 322 285 324 107 130 158 140 158 196 310 298 247 1 251 158 144 135 130 146 214
14 278 315 74 69 353 313 333 321 36 65 74 35 70 31 352 346 270 330 343 171 147 162 165 27 15 348 329 348 86 198 169 114 95 205 165 279 350 300 154 137 143 163 179 179
25 1 331 34 75 80 358 315 342 318 149 96 111 15 335 284 175 271 343 16 355 38 112 89 137 159 199 224 248 294 282 192 175 176 209 222 253 200 262 194 155 167 175 180 191
42 302 232 312 329 333 287 266 297 322 43 38 52 51 35 292 326 354 14 353 355 33 14 98 187 215 246 277 299 301 316 299 206 231 192 270 210 242 201 198 190 179 191 191 211
48 24 348 284 290 339 341 299 256 153 133 290 135 120 75 106 194 284 41 76 257 331 32 4 272 277 262 274 330 316 295 282 274 257 272 249 205 218 150 142 188 185 186 116 126
321 340 104 280 323 357 272 326 303 150 257 117 98 37 38 166 195 218 211 214 218 212 225 225 149 53 270 320 329 313 271 287 69 13 291 117 220 128 80 99 111 105 121 118 115